This is the latest recevied weather packets stored in our database for station/object N7WSS. If no packets are shown the sender has not sent any weather packets the latest 10 day(s).
| Time | Temp. | Humidity | Pressure | Rain* | Wind** | Luminosity | Snow |
|---|---|---|---|---|---|---|---|
| 1777762986 | 28.33° C | 24% | 1010.6 hPa | 0 mm | - | - | - |
| 1777762682 | 28.33° C | 24% | 1010.7 hPa | 0 mm | - | - | - |
| 1777762379 | 28.33° C | 24% | 1010.7 hPa | 0 mm | - | - | - |
| 1777762075 | 28.33° C | 24% | 1010.8 hPa | 0 mm | - | - | - |
| 1777761772 | 28.89° C | 24% | 1010.7 hPa | 0 mm | - | - | - |
| 1777761470 | 28.33° C | 24% | 1010.5 hPa | 0 mm | - | - | - |
| 1777761168 | 29.44° C | 24% | 1010.8 hPa | 0 mm | - | - | - |
| 1777760865 | 30.56° C | 22% | 1010.8 hPa | 0 mm | - | - | - |
| 1777760562 | 30.56° C | 22% | 1010.7 hPa | 0 mm | - | - | - |
| 1777760258 | 30° C | 22% | 1010.9 hPa | 0 mm | - | - | - |
| 1777759954 | 29.44° C | 22% | 1010.7 hPa | 0 mm | - | - | - |
| 1777759651 | 28.33° C | 24% | 1011.1 hPa | 0 mm | - | - | - |
| 1777759347 | 29.44° C | 23% | 1010.9 hPa | 0 mm | - | - | - |
| 1777759044 | 31.11° C | 22% | 1010.9 hPa | 0 mm | - | - | - |
| 1777758741 | 30.56° C | 22% | 1011.3 hPa | 0 mm | - | - | - |
| 1777758439 | 30.56° C | 22% | 1011.5 hPa | 0 mm | - | - | - |
| 1777758135 | 30° C | 22% | 1011.5 hPa | 0 mm | - | - | - |
| 1777757833 | 30° C | 22% | 1011.8 hPa | 0 mm | - | - | - |
| 1777757530 | 30.56° C | 21% | 1011.8 hPa | 0 mm | - | - | - |
| 1777757228 | 30.56° C | 21% | 1011.7 hPa | 0 mm | - | - | - |
| 1777756926 | 31.11° C | 21% | 1011.7 hPa | 0 mm | - | - | - |
| 1777756622 | 30.56° C | 21% | 1011.9 hPa | 0 mm | - | - | - |
| 1777756319 | 31.11° C | 21% | 1011.6 hPa | 0 mm | - | - | - |
| 1777756016 | 30° C | 21% | 1011.9 hPa | 0 mm | - | - | - |
| 1777755713 | 30° C | 21% | 1011.9 hPa | 0 mm | - | - | - |
* Rain latest hour (hover to see other rain measurements)
** Current wind speed in m/s (hover to see current wind gust speed)